Location: Tamazert
(32.6352°N, 5.2072°W)
Time: 21:46:18
(UTC+00:00)

SL-16 R/B - Pass Details

Date: 22 May 2022
Orbit: 986 x 1006 km, 99.6° (Epoch: 24 June)

Event Time Altitude Azimuth Distance (km) Brightness Sun altitude
Exits shadow 02:40:08 69° 221° (SW) 1,058 2.4 -27.0°
Maximum altitude 02:40:38 73° 257° (WSW) 1,038 2.4 -26.9°
Drops below altitude 10° 02:46:51 10° 342° (NNW) 2,768 5.2 -26.1°
Sets 02:49:21 0° 344° (NNW) 3,724 6.0 -25.8°
